Time,TemperatureF,DewpointF,PressureIn,WindDirection,WindDirectionDegrees,WindSpeedMPH,WindSpeedGustMPH,Humidity,HourlyPrecipIn,Conditions,Clouds,dailyrainin,SoftwareType,DateUTC
2013-01-13 17:47:00,34.8,33.8,29.89,WNW,301,0.0,0.0,96,0.08,,,0.59,Wunderground v.1.15,2013-01-13 22:47:00,
2013-01-13 17:48:00,34.8,33.8,29.89,WNW,301,0.0,0.0,96,0.08,,,0.59,Wunderground v.1.15,2013-01-13 22:48:00,
2013-01-13 17:51:00,34.8,33.8,29.89,WNW,301,0.0,0.0,96,0.07,,,0.60,Wunderground v.1.15,2013-01-13 22:51:00,
2013-01-13 17:52:00,34.8,33.8,29.88,WNW,300,0.0,0.0,96,0.07,,,0.60,Wunderground v.1.15,2013-01-13 22:52:00,
2013-01-13 17:57:00,34.8,33.8,29.89,WNW,301,0.0,0.0,96,0.07,,,0.60,Wunderground v.1.15,2013-01-13 22:57:00,
2013-01-13 18:02:00,34.8,33.8,29.88,WNW,301,0.0,0.0,96,0.05,,,0.60,Wunderground v.1.15,2013-01-13 23:02:00,
2013-01-13 18:08:00,34.7,33.7,29.89,WNW,301,0.0,1.0,96,0.00,,,0.61,Wunderground v.1.15,2013-01-13 23:08:00,
2013-01-13 18:13:00,34.8,33.8,29.89,WNW,300,0.0,0.0,96,0.00,,,0.61,Wunderground v.1.15,2013-01-13 23:13:00,
2013-01-13 18:19:00,34.8,33.8,29.89,WNW,300,0.0,0.0,96,0.00,,,0.61,Wunderground v.1.15,2013-01-13 23:19:00,
2013-01-13 18:24:00,34.8,33.8,29.89,WNW,300,0.0,1.0,96,0.00,,,0.61,Wunderground v.1.15,2013-01-13 23:24:00,
2013-01-13 18:29:00,34.8,33.8,29.89,WNW,301,0.0,1.0,96,0.00,,,0.61,Wunderground v.1.15,2013-01-13 23:29:00,
2013-01-13 18:35:00,34.8,33.8,29.88,WNW,300,1.0,3.0,96,0.00,,,0.61,Wunderground v.1.15,2013-01-13 23:35:00,
2013-01-13 18:41:00,34.8,33.8,29.89,WNW,300,0.0,1.0,96,0.00,,,0.61,Wunderground v.1.15,2013-01-13 23:41:00,
2013-01-13 18:46:00,34.7,33.7,29.90,WNW,300,0.0,2.0,96,0.00,,,0.61,Wunderground v.1.15,2013-01-13 23:46:00,
2013-01-13 18:52:00,34.7,33.7,29.91,SW,228,1.0,1.0,96,0.00,,,0.62,Wunderground v.1.15,2013-01-13 23:52:00,
2013-01-13 18:57:00,34.7,33.7,29.90,WNW,284,1.0,3.0,96,0.00,,,0.62,Wunderground v.1.15,2013-01-13 23:57:00,
2013-01-13 19:03:00,34.7,33.7,29.90,West,281,1.0,3.0,96,0.00,,,0.62,Wunderground v.1.15,2013-01-14 00:03:00,
2013-01-13 19:08:00,34.6,33.6,29.91,West,274,1.0,3.0,96,0.00,,,0.63,Wunderground v.1.15,2013-01-14 00:08:00,
2013-01-13 19:14:00,34.5,33.5,29.92,WSW,257,3.0,3.0,96,0.00,,,0.63,Wunderground v.1.15,2013-01-14 00:14:00,
2013-01-13 19:19:00,34.4,33.4,29.90,WNW,283,2.0,4.0,96,0.00,,,0.63,Wunderground v.1.15,2013-01-14 00:19:00,
2013-01-13 19:25:00,34.3,33.3,29.91,West,267,2.0,3.0,96,0.05,,,0.64,Wunderground v.1.15,2013-01-14 00:25:00,
2013-01-13 19:30:00,34.1,33.1,29.92,WSW,255,3.0,5.0,96,0.05,,,0.64,Wunderground v.1.15,2013-01-14 00:30:00,
2013-01-13 19:36:00,34.0,33.0,29.91,West,281,3.0,5.0,96,0.04,,,0.64,Wunderground v.1.15,2013-01-14 00:36:00,
2013-01-13 19:41:00,33.9,32.9,29.92,WNW,294,3.0,5.0,96,0.00,,,0.64,Wunderground v.1.15,2013-01-14 00:41:00,
2013-01-13 19:46:00,33.7,32.7,29.92,WNW,285,3.0,5.0,96,0.00,,,0.64,Wunderground v.1.15,2013-01-14 00:46:00,
2013-01-13 19:52:00,33.6,32.6,29.92,West,279,3.0,3.0,96,0.00,,,0.64,Wunderground v.1.15,2013-01-14 00:52:00,
2013-01-13 19:57:00,33.5,32.5,29.92,West,275,3.0,4.0,96,0.00,,,0.64,Wunderground v.1.15,2013-01-14 00:57:00,
2013-01-13 20:03:00,33.5,32.5,29.93,WSW,256,3.0,5.0,96,0.00,,,0.64,Wunderground v.1.15,2013-01-14 01:03:00,
2013-01-13 20:08:00,33.5,32.5,29.93,West,280,3.0,7.0,96,0.00,,,0.64,Wunderground v.1.15,2013-01-14 01:08:00,
2013-01-13 20:14:00,33.4,32.4,29.93,SW,234,4.0,8.0,96,0.00,,,0.64,Wunderground v.1.15,2013-01-14 01:14:00,
2013-01-13 20:19:00,33.3,32.3,29.93,NW,306,4.0,8.0,96,0.00,,,0.64,Wunderground v.1.15,2013-01-14 01:19:00,
2013-01-13 20:24:00,33.3,32.3,29.92,WNW,287,4.0,4.0,96,0.00,,,0.64,Wunderground v.1.15,2013-01-14 01:24:00,
2013-01-13 20:30:00,33.2,32.2,29.93,West,278,4.0,4.0,96,0.00,,,0.64,Wunderground v.1.15,2013-01-14 01:30:00,
2013-01-13 20:35:00,33.2,32.2,29.94,WNW,294,5.0,5.0,96,0.00,,,0.64,Wunderground v.1.15,2013-01-14 01:35:00,
2013-01-13 20:41:00,33.1,32.1,29.94,West,271,5.0,5.0,96,0.00,,,0.64,Wunderground v.1.15,2013-01-14 01:41:00,
2013-01-13 20:46:00,33.0,32.0,29.94,West,279,6.0,11.0,96,0.00,,,0.64,Wunderground v.1.15,2013-01-14 01:46:00,
2013-01-13 20:52:00,32.9,31.9,29.94,WNW,297,6.0,8.0,96,0.00,,,0.64,Wunderground v.1.15,2013-01-14 01:52:00,
2013-01-13 20:57:00,32.8,31.8,29.95,WNW,284,5.0,8.0,96,0.00,,,0.64,Wunderground v.1.15,2013-01-14 01:57:00,
2013-01-13 21:02:00,32.8,31.8,29.94,NW,317,5.0,9.0,96,0.00,,,0.64,Wunderground v.1.15,2013-01-14 02:02:00,
2013-01-13 21:08:00,32.6,31.6,29.95,West,273,6.0,10.0,96,0.00,,,0.64,Wunderground v.1.15,2013-01-14 02:08:00,
2013-01-13 21:13:00,32.5,31.5,29.96,NW,305,6.0,11.0,96,0.00,,,0.64,Wunderground v.1.15,2013-01-14 02:13:00,
2013-01-13 21:19:00,32.4,31.4,29.96,West,274,6.0,11.0,96,0.00,,,0.64,Wunderground v.1.15,2013-01-14 02:19:00,
2013-01-13 21:24:00,32.3,31.3,29.96,WNW,301,7.0,8.0,96,0.00,,,0.64,Wunderground v.1.15,2013-01-14 02:24:00,
2013-01-13 21:30:00,32.0,31.0,29.97,West,271,7.0,7.0,96,0.00,,,0.64,Wunderground v.1.15,2013-01-14 02:30:00,
2013-01-13 21:35:00,31.7,30.7,29.95,West,278,6.0,10.0,96,0.00,,,0.64,Wunderground v.1.15,2013-01-14 02:35:00,
2013-01-13 21:40:00,31.5,30.5,29.95,NW,314,6.0,9.0,96,0.00,,,0.64,Wunderground v.1.15,2013-01-14 02:40:00,
2013-01-13 21:46:00,31.4,30.4,29.96,WNW,293,5.0,9.0,96,0.00,,,0.64,Wunderground v.1.15,2013-01-14 02:46:00,
2013-01-13 21:51:00,31.4,30.4,29.97,WNW,292,4.0,7.0,96,0.00,,,0.64,Wunderground v.1.15,2013-01-14 02:51:00,
2013-01-13 21:57:00,31.2,30.2,29.97,West,273,5.0,7.0,96,0.00,,,0.64,Wunderground v.1.15,2013-01-14 02:57:00,
2013-01-13 22:02:00,31.0,30.0,29.97,WNW,302,6.0,8.0,96,0.00,,,0.64,Wunderground v.1.15,2013-01-14 03:02:00,
2013-01-13 22:08:00,30.9,29.9,29.98,WNW,298,7.0,8.0,96,0.00,,,0.64,Wunderground v.1.15,2013-01-14 03:08:00,
2013-01-13 22:13:00,30.8,29.8,29.97,West,265,7.0,7.0,96,0.00,,,0.64,Wunderground v.1.15,2013-01-14 03:13:00,
2013-01-13 22:18:00,30.8,29.5,29.97,West,281,6.0,8.0,95,0.00,,,0.64,Wunderground v.1.15,2013-01-14 03:18:00,
2013-01-13 22:24:00,30.8,29.5,29.97,WNW,296,6.0,8.0,95,0.00,,,0.64,Wunderground v.1.15,2013-01-14 03:24:00,
2013-01-13 22:29:00,30.6,29.3,29.97,NW,315,7.0,10.0,95,0.00,,,0.64,Wunderground v.1.15,2013-01-14 03:29:00,
2013-01-13 22:35:00,30.3,29.0,29.97,WNW,286,7.0,11.0,95,0.00,,,0.64,Wunderground v.1.15,2013-01-14 03:35:00,
2013-01-13 22:40:00,30.0,28.5,29.97,WNW,291,9.0,10.0,94,0.00,,,0.64,Wunderground v.1.15,2013-01-14 03:40:00,
2013-01-13 22:46:00,29.6,28.1,29.99,WNW,292,9.0,11.0,94,0.00,,,0.64,Wunderground v.1.15,2013-01-14 03:46:00,
2013-01-13 22:51:00,29.4,27.9,30.00,WNW,290,8.0,12.0,94,0.00,,,0.64,Wunderground v.1.15,2013-01-14 03:51:00,
2013-01-13 22:56:00,29.2,27.7,30.00,WNW,292,8.0,13.0,94,0.00,,,0.64,Wunderground v.1.15,2013-01-14 03:56:00,
2013-01-13 23:02:00,29.2,27.7,30.00,West,279,7.0,10.0,94,0.00,,,0.64,Wunderground v.1.15,2013-01-14 04:02:00,
2013-01-13 23:07:00,29.0,27.5,30.00,WNW,297,7.0,11.0,94,0.00,,,0.64,Wunderground v.1.15,2013-01-14 04:07:00,
2013-01-13 23:13:00,28.8,27.0,30.00,WNW,291,9.0,19.0,93,0.00,,,0.64,Wunderground v.1.15,2013-01-14 04:13:00,
2013-01-13 23:18:00,28.8,27.0,30.00,West,279,9.0,19.0,93,0.00,,,0.64,Wunderground v.1.15,2013-01-14 04:18:00,
2013-01-13 23:24:00,28.7,26.9,30.00,WNW,303,6.0,12.0,93,0.00,,,0.64,Wunderground v.1.15,2013-01-14 04:24:00,
2013-01-13 23:29:00,28.6,26.8,30.02,West,274,6.0,12.0,93,0.00,,,0.64,Wunderground v.1.15,2013-01-14 04:29:00,
2013-01-13 23:34:00,28.5,26.7,30.02,WNW,292,6.0,9.0,93,0.00,,,0.64,Wunderground v.1.15,2013-01-14 04:34:00,
2013-01-13 23:40:00,28.4,26.4,30.02,West,271,7.0,10.0,92,0.00,,,0.64,Wunderground v.1.15,2013-01-14 04:40:00,
2013-01-13 23:45:00,28.4,26.4,30.02,WNW,297,7.0,10.0,92,0.00,,,0.64,Wunderground v.1.15,2013-01-14 04:45:00,
2013-01-13 23:51:00,28.3,26.0,30.03,West,275,6.0,9.0,91,0.00,,,0.64,Wunderground v.1.15,2013-01-14 04:51:00,
2013-01-13 23:56:00,28.3,26.0,30.03,West,276,6.0,9.0,91,0.00,,,0.64,Wunderground v.1.15,2013-01-14 04:56:00,